Location: Newark
(29.9790°N, 31.1340°E)
Time: 00:05:03
(UTC+00:00)

Vanguard 3 - Pass Details

Date: 21 January 2021
Orbit: 508 x 3262 km, 33.4° (Epoch: 06 March)

Event Time Altitude Azimuth Distance (km) Brightness Sun altitude
Exits shadow 01:30:53 52° 95° (E) 1,727 8.8 -43.0°
Drops below altitude 10° 01:39:52 10° 74° (ENE) 4,522 11.5 -41.1°
Sets 01:44:32 0° 73° (ENE) 5,976 12.4 -40.1°
